星链-31200 (STARLINK-31200 )

导读

STARLINK-31200是美国SpaceX公司星链(Starlink)项目的第二代低轨通信卫星,于2024年1月29日发射。星链项目旨在构建全球覆盖的低轨卫星互联网,为全球提供高速宽带接入服务。STARLINK-31200所属的Starlink V1.5卫星具备激光星间链路技术,可实现卫星间直接通信,助力构建高效全球网络,是星链巨型星座扩容的重要组成部分。

基本信息
目录编号:
58862
目录名称:
STARLINK-31200
国际标识:
2024-019K
轨道中心:
EARTH
卫星名称:
星链-31200
卫星全名:
星链-31200 (STARLINK-31200 )
卫星状态:
在轨 (已飞行871 天)
发射日期:
2024-01-29 UTC
国别 :
美国 (US)
星等 :
--
轨道信息
数据来源 国际轨道数据
星历时间: 2026-06-17T06:45:07+0800
1天前
查看轨道信息
半长轴: 6861.177km
偏心率: 0.0001127
轨道倾角: 43.001°
近地点辐角 267.587°
升交点赤经 48.278°
平近点角 92.485°
近地点: 482.266km
远地点: 483.814km
周期: 94.267分钟
每日圈数: 15.275831
详细信息
固有亮度:
5
最大亮度:
0.3
卫星平台:
Starlink v2.0 mini
覆盖范围:
全球
运营商:
太空探索技术公司
运营商所在国:
美国
制造商(研发单位):
太空探索技术公司
制造商所在国:
美国
使用方式:
暂无
卫星简介
星链(Starlink)计划是由太空探索技术公司(SpaceX)提出的一个巨型低轨卫星互联网星座项目,计划在2019年至2024年间在太空搭建由约1.2万颗卫星组成的“星链”网络,其中1584颗将部署在地球上空550千米处的近地轨道,并从2020年开始工作。该卫星仍在工作。
2D轨道图
3D轨道图
轨道高度分析图
轨道倾角分析图
轨道综合分析图
查看轨道综合分析图